Regional Weather Roundup
Issued by NWS New Orleans/Baton Rouge, LA

Home | Current Version | Previous Version | Graphics & Text | Print | Product List | Glossary On
Versions: 1 2 3 4 5 6 7 8 9 10 11 12 13 14 15 16 17 18 19 20 21 22 23 24 25 26 27 28 29 30 31 32 33 34 35 36 37 38 39 40 41 42 43 44 45 46 47 48 49 50
323
ASUS44 KLIX 210701
RWRLIX
NEW ORLEANS REGIONAL WEATHER ROUNDUP
NATIONAL WEATHER SERVICE NEW ORLEANS LA
100 AM CST SUN DEC 21 2014

NOTE: "FAIR" INDICATES FEW OR NO CLOUDS BELOW 12,000 FEET WITH NO
      SIGNIFICANT WEATHER AND/OR OBSTRUCTIONS TO VISIBILITY.
      SKY/WX - SKY CONDITION AND SIGNIFICANT WEATHER.
      TMP - AIR TEMPERATURE.     DP    - DEWPOINT TEMPERATURE.
      RH  - RELATIVE HUMIDITY.   PRES  - PRESSURE.
      HI  - HEAT INDEX.          WCI   - WIND CHILL INDEX.

*  THESE STATIONS ARE NOT NWS OR FAA STATIONS AND ARE NOT UNDER
   NWS QUALITY CONTROL.

LAZ038-040-048-061>063-065>067-069-210800-
SOUTHEAST LOUISIANA

CITY           SKY/WX    TMP DP  RH WIND       PRES   REMARKS
N.O. AUDUBON     N/A     52  50  93 MISG        N/A
N.O. INTL ARPT CLOUDY    53  48  83 NE9       30.14F
N.O. LAKEFRONT CLOUDY    54  48  80 NE12      30.15F
N.O. DOWNTOWN* CLOUDY    52  45  76 NE7       30.14F
SLIDELL        CLOUDY    52  46  80 NE5       30.15S
BATON ROUGE    CLOUDY    46  44  93 CALM      30.17S
BOOTHVILLE     CLOUDY    55  53  93 NE7       30.13S
BELLE CHASSE   CLOUDY    53  49  86 NE9       30.13F
BOGALUSA*        N/A     52  45  79 CALM      30.18S
GALLIANO*      NOT AVBL
NEW ROADS*     NOT AVBL
GONZALES*      NOT AVBL
HAMMOND*       NOT AVBL
HOUMA*         CLOUDY    51  49  92 NE6       30.13F
PORT FOURCHON* CLOUDY    54  52  94 NE16      30.14F

$$

MSZ070-080>082-210800-
SOUTHERN MISSISSIPPI

CITY           SKY/WX    TMP DP  RH WIND       PRES   REMARKS
MCCOMB         CLEAR     44  41  89 N3        30.17S
GULFPORT       MOCLDY    51  46  83 NE6       30.14F
BILOXI         NOT AVBL
PASCAGOULA     CLOUDY    51  47  86 NE7       30.14F

$$

COASTAL OBSERVATIONS
LAKE AND NEARSHORE STATIONS

STATION/POSITION TIME  TEMP    WIND        PRES    WAVE
                       AIR SEA DIR/SP/G            HT/PER
                 (UTC) (F)     (DEG/KT/KT) (MB)    (FT/S)
PASCAGOULA       0600   51      30/  7/ 11 1020.0
WAVELAND YACHT   0600   51      40/  6/  8 1020.1
GRAND ISLE       0600   54 60   50/  9/ 15 1020.3
SOUTHWEST PASS   0600   56                 1019.6
NEW CANAL        0600   53 56   60/ 12/ 13 1021.2
SHELL BEACH      0600   52 57   30/ 12/ 14 1020.9

OFFSHORE STATIONS

STATION/POSITION TIME  TEMP    WIND        PRES    WAVE
                       AIR SEA DIR/SP/G            HT/PER
                 (UTC) (F)     (DEG/KT/KT) (MB)    (FT/S)
64 S DAUPHIN ISL 0700   64 74   40/ 17/ 21 1017.4    6/ 7

$$




USA.gov is the U.S. government's official web portal to all federal, state and local government web resources and services.